Location: Newark
(3.3223°N, 76.2348°W)
Time: 00:41:03
(UTC+00:00)

BEESAT 2 - Pass Details

Date: 27 January 2020
Orbit: 493 x 534 km, 64.9° (Epoch: 20 February)

Event Time Altitude Azimuth Distance (km) Brightness Sun altitude
Rises 23:54:23 0° 207° (SSW) 2,587 ? -9.8°
Reaches altitude 10° 23:56:33 10° 210° (SSW) 1,709 ? -10.3°
Maximum altitude 00:00:20 65° 292° (WNW) 559 ? -11.2°
Drops below altitude 10° 00:04:10 10° 14° (NNE) 1,727 ? -12.1°
Enters shadow 00:05:19 - 16° (NNE) 2,198 ? -12.4°
